Home   Weather   Vidin   Past weeks
Flag for Bulgaria

Past Weather in Vidin, Bulgaria — Yesterday and Last 2 Weeks

Now
75 °F

Clear.


Feels Like: 77 °F
Forecast: 94 / 66 °F
Wind: 2 mph from North

Location: Calafat

Current Time: Jul 22, 2019 at 12:28:51 am

Latest Report: Jul 21, 2019 at 11:00 pm


Visibility: 6 mi

Pressure: 30.07 "Hg

Humidity: 58%

Dew Point: 59 °F

Location of VidinLocation

Past Weather in Vidin — Graph

°F

Vidin Temperature Yesterday

Maximum temperature yesterday: 95 °F (at 7:00 pm)
Minimum temperature yesterday: 65 °F (at 7:00 am)
Average temperature yesterday: 79 °F

High & Low Weather Summary for the Past Weeks

 TemperatureHumidityPressure
High95 °F (Jul 7, 6:00 pm)100% (Jul 8, 1:00 am)30.11 "Hg (Jul 8, 1:00 am)
Low56 °F (Jul 11, 5:00 am)24% (Jul 21, 7:00 pm)29.65 "Hg (Jul 7, 10:00 pm)
Average72 °F62%29.89 "Hg
* Reported Jul 6 11:00 pm — Jul 21 11:00 pm, Vidin. Weather by CustomWeather, © 2019

Note: Actual official high and low records may vary slightly from our data, if they occured in-between our weather recording intervals... More about our weather records

Advertising

Vidin Weather History for the Previous 24 Hours

Scroll right to see more
 ConditionsComfort  
Time TempWeatherWind HumidityBarometerVisibility
11:00 pm
Sun, Jul 21
75 °FClear.2 mph58%30.07 "Hg6 mi
10:00 pm80 °FPassing clouds.No wind45%30.06 "Hg6 mi
9:00 pm85 °FScattered clouds.1 mph35%30.03 "Hg6 mi
8:00 pm91 °FPassing clouds.2 mph26%30.03 "Hg6 mi
7:00 pm95 °FPassing clouds.1 mph24%30.03 "Hg6 mi
6:00 pm94 °FScattered clouds.2 mph25%30.04 "Hg6 mi
5:00 pm94 °FScattered clouds.2 mph27%30.05 "Hg6 mi
3:00 pm94 °FPassing clouds.2 mph27%30.07 "Hg6 mi
2:00 pm93 °FPassing clouds.2 mph29%30.09 "Hg6 mi
1:00 pm89 °FSunny.No wind36%30.09 "Hg6 mi
12:00 pm83 °FSunny.1 mph50%30.10 "Hg6 mi
11:00 am80 °FSunny.1 mph55%30.11 "Hg6 mi
10:00 am77 °FPassing clouds.No wind59%30.11 "Hg6 mi
9:00 am72 °FScattered clouds.1 mph76%30.11 "Hg6 mi
8:00 am69 °FPassing clouds.1 mph80%30.11 "Hg6 mi
7:00 am65 °FMild.1 mph89%30.10 "HgN/A
6:00 am66 °FMild.1 mph86%30.09 "HgN/A
5:00 am66 °FMild.1 mph87%30.09 "HgN/A
4:00 am67 °FMild.1 mph87%30.09 "HgN/A
3:00 am68 °FClear.1 mph80%30.09 "Hg6 mi
2:00 am68 °FClear.1 mph88%30.08 "Hg6 mi
1:00 am71 °FClear.1 mph69%30.08 "Hg6 mi
12:00 am72 °FClear.1 mph66%30.08 "Hg6 mi
Weather by CustomWeather, © 2019

See weather overview